TimeMDT,TemperatureF,Dew PointF,Humidity,Sea Level PressureIn,VisibilityMPH,Wind Direction,Wind SpeedMPH,Gust SpeedMPH,PrecipitationIn,Events,Conditions,WindDirDegrees,DateUTC
12:58 AM,35.1,18.9,52,30.34,10.0,WNW,15.0,-,N/A,,Clear,300,2013-03-10 07:58:00
1:58 AM,31.6,19.4,61,30.38,10.0,WNW,9.2,-,N/A,,Clear,300,2013-03-10 08:58:00
3:58 AM,30.7,16.9,56,30.38,10.0,WNW,13.8,-,N/A,,Clear,290,2013-03-10 09:58:00
4:58 AM,31.3,18.0,58,30.38,10.0,WNW,13.8,-,N/A,,Clear,300,2013-03-10 10:58:00
5:58 AM,30.4,17.6,59,30.40,10.0,WNW,12.7,-,N/A,,Clear,300,2013-03-10 11:58:00
6:58 AM,25.9,16.3,67,30.41,10.0,NW,6.9,-,N/A,,Clear,310,2013-03-10 12:58:00
7:58 AM,26.8,17.1,67,30.43,10.0,NW,9.2,-,N/A,,Clear,320,2013-03-10 13:58:00
8:58 AM,31.6,18.7,59,30.45,10.0,NNW,4.6,-,N/A,,Clear,330,2013-03-10 14:58:00
9:58 AM,38.8,19.8,46,30.43,10.0,NW,10.4,-,N/A,,Clear,320,2013-03-10 15:58:00
10:58 AM,45.1,18.1,34,30.43,10.0,NNW,15.0,-,N/A,,Clear,330,2013-03-10 16:58:00
11:58 AM,48.9,15.1,26,30.43,10.0,NW,19.6,-,N/A,,Clear,320,2013-03-10 17:58:00
12:58 PM,52.9,12.6,20,30.39,10.0,NW,16.1,-,N/A,,Clear,310,2013-03-10 18:58:00
1:58 PM,54.3,10.9,18,30.37,10.0,WNW,15.0,-,N/A,,Clear,300,2013-03-10 19:58:00
2:58 PM,55.8,10.0,16,30.35,10.0,NW,18.4,23.0,N/A,,Clear,310,2013-03-10 20:58:00
3:58 PM,57.2,8.6,14,30.33,10.0,NW,11.5,-,N/A,,Mostly Cloudy,310,2013-03-10 21:58:00
4:58 PM,57.4,9.7,15,30.32,10.0,NNW,11.5,-,N/A,,Mostly Cloudy,330,2013-03-10 22:58:00
5:58 PM,56.8,13.6,18,30.30,10.0,NNW,10.4,-,N/A,,Mostly Cloudy,330,2013-03-10 23:58:00
6:58 PM,54.3,14.2,20,30.32,10.0,NNW,8.1,-,N/A,,Mostly Cloudy,340,2013-03-11 00:58:00
7:58 PM,51.1,13.6,23,30.32,10.0,North,8.1,-,N/A,,Mostly Cloudy,360,2013-03-11 01:58:00
8:58 PM,46.4,13.3,26,30.32,10.0,NNW,3.5,-,N/A,,Partly Cloudy,330,2013-03-11 02:58:00